Date String (YYYY-MM-DD hh:mm:ss) UTC,Instrument flags,Ambient pressure (hPa),Sample flow (lpm),Bypass flow (lpm),Sample temperature (°C),Ambient temperature (°C),ASC tube jacket temperature (°C),LED temperature (°C),Box temperature (°C),Sample RH (%),Span deviation,Mass concentration (μg/m³),Mass concentration (μg/m³),Mass concentration (μg/m³)
DateTimeUTC,F1_M11,P_M11,Q1_M11,Q2_M11,T1_M11,T2_M11,T3_M11,T4_M11,T5_M11,U1_M11,ZSPAN_M11,X0_M11,X2_M11,X1_M11
2022-06-21 15:00:00,,0835.3,5.01,0.00,29.4,28.4,00.0,38.3,31.2,15.3,0000.0,0008.52,0003.21,0001.37
2022-06-21 15:01:00,,0835.4,5.01,0.00,29.4,28.4,00.0,38.3,31.2,15.3,0000.0,0008.17,0003.20,0001.38
2022-06-21 15:02:00,,0835.4,5.01,0.00,29.4,28.4,00.0,38.3,31.2,15.3,0000.0,0007.99,0003.20,0001.37
2022-06-21 15:03:00,,0835.4,5.00,0.00,29.4,28.4,00.0,38.3,31.2,15.3,0000.0,0008.52,0003.23,0001.37
2022-06-21 15:04:00,,0835.4,4.99,0.00,29.4,28.4,00.0,38.3,31.2,15.3,0000.0,0008.78,0003.27,0001.38
2022-06-21 15:05:00,,0835.4,5.00,0.00,29.4,28.5,00.0,38.3,31.2,15.3,0000.0,0008.64,0003.23,0001.38
2022-06-21 15:06:00,,0835.4,5.00,0.00,29.4,28.5,00.0,38.3,31.2,15.2,0000.0,0008.47,0003.22,0001.37
2022-06-21 15:07:00,,0835.3,4.98,0.00,29.5,28.5,00.0,38.3,31.3,15.3,0000.0,0008.56,0003.31,0001.38
2022-06-21 15:08:00,,0835.4,5.01,0.00,29.5,28.5,00.0,38.3,31.3,15.2,0000.0,0009.08,0003.33,0001.39
2022-06-21 15:09:00,,0835.4,5.01,0.00,29.5,28.5,00.0,38.3,31.3,15.2,0000.0,0009.24,0003.34,0001.38
2022-06-21 15:10:00,,0835.4,4.99,0.00,29.5,28.6,00.0,38.3,31.3,15.2,0000.0,0009.52,0003.33,0001.38
2022-06-21 15:11:00,,0835.4,5.01,0.00,29.5,28.6,00.0,38.3,31.3,15.2,0000.0,0009.52,0003.31,0001.39
2022-06-21 15:12:00,,0835.4,5.00,0.00,29.5,28.6,00.0,38.3,31.3,15.2,0000.0,0009.46,0003.32,0001.38
2022-06-21 15:13:00,,0835.4,4.99,0.00,29.5,28.6,00.0,38.3,31.4,15.2,0000.0,0009.36,0003.31,0001.40
2022-06-21 15:14:00,,0835.4,5.02,0.00,29.6,28.6,00.0,38.3,31.4,15.2,0000.0,0008.98,0003.33,0001.41
2022-06-21 15:15:00,,0835.4,4.99,0.00,29.6,28.7,00.0,38.4,31.4,15.2,0000.0,0008.72,0003.32,0001.41
2022-06-21 15:16:00,,0835.4,5.02,0.00,29.6,28.7,00.0,38.4,31.4,15.2,0000.0,0009.08,0003.32,0001.40
2022-06-21 15:17:00,,0835.4,5.01,0.00,29.6,28.7,00.0,38.4,31.4,15.2,0000.0,0009.57,0003.36,0001.40
2022-06-21 15:18:00,,0835.4,5.00,0.00,29.6,28.7,00.0,38.4,31.4,15.1,0000.0,0011.17,0003.40,0001.41
2022-06-21 15:19:00,,0835.4,4.99,0.00,29.6,28.7,00.0,38.4,31.4,15.1,0000.0,0011.10,0003.42,0001.40
2022-06-21 15:20:00,,0835.4,5.01,0.00,29.6,28.7,00.0,38.4,31.4,15.0,0000.0,0011.27,0003.43,0001.40
2022-06-21 15:21:00,,0835.3,4.99,0.00,29.6,28.8,00.0,38.4,31.5,15.1,0000.0,0011.04,0003.44,0001.40
2022-06-21 15:22:00,,0835.4,5.00,0.00,29.6,28.8,00.0,38.4,31.5,15.1,0000.0,0011.00,0003.44,0001.39
2022-06-21 15:23:00,,0835.4,4.99,0.00,29.6,28.8,00.0,38.5,31.5,15.0,0000.0,0011.31,0003.45,0001.38
2022-06-21 15:24:00,,0835.4,5.00,0.00,29.7,28.8,00.0,38.5,31.5,15.1,0000.0,0011.44,0003.43,0001.38
2022-06-21 15:25:00,,0835.4,5.01,0.00,29.7,28.8,00.0,38.5,31.5,15.1,0000.0,0011.65,0003.43,0001.38
2022-06-21 15:26:00,,0835.3,5.00,0.00,29.7,28.8,00.0,38.5,31.5,15.0,0000.0,0011.55,0003.38,0001.37
2022-06-21 15:27:00,,0835.4,4.99,0.00,29.7,28.8,00.0,38.5,31.5,15.0,0000.0,0011.32,0003.38,0001.35
2022-06-21 15:28:00,,0835.3,5.01,0.00,29.7,28.8,00.0,38.5,31.6,15.0,0000.0,0011.28,0003.37,0001.35
2022-06-21 15:29:00,,0835.4,4.99,0.00,29.7,28.9,00.0,38.5,31.6,15.1,0000.0,0010.72,0003.34,0001.36
2022-06-21 15:30:00,,0835.4,5.00,0.00,29.8,28.9,00.0,38.5,31.6,15.1,0000.0,0010.16,0003.33,0001.36
2022-06-21 15:31:00,,0835.4,5.00,0.00,29.8,28.9,00.0,38.5,31.6,15.1,0000.0,0010.71,0003.34,0001.36
2022-06-21 15:32:00,,0835.4,5.00,0.00,29.8,28.9,00.0,38.6,31.6,15.1,0000.0,0011.09,0003.30,0001.37
2022-06-21 15:33:00,,0835.4,5.00,0.00,29.8,28.9,00.0,38.6,31.6,15.0,0000.0,0011.37,0003.34,0001.39
2022-06-21 15:34:00,,0835.4,5.01,0.00,29.8,28.9,00.0,38.6,31.6,15.0,0000.0,0011.60,0003.33,0001.41
2022-06-21 15:35:00,,0835.4,5.00,0.00,29.8,28.9,00.0,38.6,31.6,14.9,0000.0,0011.34,0003.33,0001.41
2022-06-21 15:36:00,,0835.4,5.00,0.00,29.8,28.9,00.0,38.6,31.6,14.9,0000.0,0011.09,0003.31,0001.39
2022-06-21 15:37:00,,0835.4,5.01,0.00,29.8,28.9,00.0,38.6,31.6,14.9,0000.0,0011.16,0003.32,0001.39
2022-06-21 15:38:00,,0835.4,4.99,0.00,29.8,28.9,00.0,38.6,31.7,14.9,0000.0,0011.11,0003.31,0001.39
2022-06-21 15:39:00,,0835.4,4.99,0.00,29.8,28.9,00.0,38.6,31.6,14.8,0000.0,0010.81,0003.29,0001.38
2022-06-21 15:40:00,,0835.4,5.00,0.00,29.8,28.9,00.0,38.6,31.6,14.8,0000.0,0010.24,0003.25,0001.38
2022-06-21 15:41:00,,0835.4,4.99,0.00,29.8,28.9,00.0,38.6,31.6,14.7,0000.0,0010.10,0003.26,0001.39
2022-06-21 15:42:00,,0835.4,5.00,0.00,29.8,28.9,00.0,38.7,31.7,14.6,0000.0,0009.31,0003.26,0001.40
2022-06-21 15:43:00,,0835.4,5.01,0.00,29.8,28.9,00.0,38.7,31.7,14.6,0000.0,0008.86,0003.32,0001.39
2022-06-21 15:44:00,,0835.4,4.99,0.00,29.9,29.0,00.0,38.7,31.7,14.6,0000.0,0008.47,0003.28,0001.38
2022-06-21 15:45:00,,0835.4,5.01,0.00,29.9,29.0,00.0,38.7,31.7,14.6,0000.0,0007.96,0003.23,0001.38
2022-06-21 15:46:00,,0835.4,5.01,0.00,29.9,29.0,00.0,38.7,31.7,14.6,0000.0,0007.86,0003.19,0001.38
2022-06-21 15:47:00,,0835.4,4.99,0.00,29.9,29.0,00.0,38.7,31.7,14.6,0000.0,0007.73,0003.16,0001.38
2022-06-21 15:48:00,,0835.4,4.99,0.00,29.9,29.0,00.0,38.7,31.7,14.6,0000.0,0007.75,0003.17,0001.38
2022-06-21 15:49:00,,0835.4,5.01,0.00,29.9,29.0,00.0,38.7,31.7,14.7,0000.0,0007.71,0003.15,0001.41
2022-06-21 15:50:00,,0835.4,4.99,0.00,29.9,29.0,00.0,38.7,31.7,14.5,0000.0,0007.66,0003.16,0001.42
2022-06-21 15:51:00,,0835.3,5.01,0.00,29.9,29.0,00.0,38.7,31.7,14.5,0000.0,0007.31,0003.16,0001.43
2022-06-21 15:52:00,,0835.4,5.00,0.00,29.9,29.0,00.0,38.7,31.7,14.4,0000.0,0007.02,0003.13,0001.43
2022-06-21 15:53:00,,0835.4,5.00,0.00,29.9,29.0,00.0,38.7,31.7,14.3,0000.0,0006.84,0003.10,0001.43
2022-06-21 15:54:00,,0835.4,5.01,0.00,29.9,29.0,00.0,38.7,31.7,14.3,0000.0,0006.97,0003.12,0001.44
2022-06-21 15:55:00,,0835.4,5.00,0.00,29.9,29.0,00.0,38.7,31.7,14.3,0000.0,0006.76,0003.09,0001.46
2022-06-21 15:56:00,,0835.3,5.00,0.00,29.9,28.6,00.0,38.7,31.7,14.3,0000.0,0006.78,0003.12,0001.47
2022-06-21 15:57:00,,0835.4,4.99,0.00,29.9,27.9,00.0,38.6,31.5,14.3,0000.0,0006.89,0003.15,0001.47
2022-06-21 15:58:00,,0835.3,5.00,0.00,29.8,27.7,00.0,38.6,31.4,14.3,0000.0,0007.52,0003.20,0001.48
2022-06-21 15:59:00,,0835.3,5.00,0.00,29.8,27.7,00.0,38.6,31.4,14.3,0000.0,0007.59,0003.24,0001.49
